User: anonymous   Login
Location: Deer Lodge Site
(39.6809°N, 119.9392°W)
Time: 06:28:22
(UTC-08:00)
Language:

CZ-4C R/B - Orbit

View from above orbital plane
View from above orbital plane
View from above satellite
View from above satellite

Ground track
Ground track

The orbit data is extracted from the following two-line orbital elements,

1 36416U 10009D   16339.53796131 -.00000066  00000-0  21662-4 0  9991
2 36416  63.4422  65.9940 0367830 356.8340   3.0373 13.69505836337715
Epoch (UTC): 04 December 2016 12:54:39
Eccentricity: 0.0367830
inclination: 63.4422°
perigee height: 730 km
apogee height: 1273 km
right ascension of ascending node: 65.9940°
argument of perigee: 356.8340°
revolutions per day: 13.69505836
mean anomaly at epoch: 3.0373°
orbit number at epoch: 33771

The dashed part of the orbit path shows where the satellite is in the earth's shadow,  

DLR